Theta_e
284 284 284 285 286 285 285 285 285 286 286 287 287 288 288 287 286 281 279 280 280 281 283 282 284 287 287 287 287 286 285 287 289 286 284 284 285 292 296 298 299 298 297 297 296 295 294 294 294 295 296 296 296 296 297 297 296 296 296 296 296 297 297 297 297 296 297 296 297 297 297 298 298 298
284 284 284 284 284 284 284 285 285 285 286 285 286 287 287 288 288 285 282 283 281 281 282 284 283 285 286 287 286 286 285 288 289 284 282 283 283 290 294 297 298 297 297 296 295 295 294 294 294 294 295 295 295 296 296 295 295 295 295 296 296 297 297 297 296 296 295 296 296 296 297 297 297 297
285 284 284 284 284 284 284 284 284 284 284 285 285 285 287 286 288 288 283 284 282 284 281 283 284 284 286 287 286 286 285 287 288 284 282 281 285 288 291 293 296 296 296 295 295 295 294 294 294 294 294 294 295 295 295 295 295 295 295 295 295 296 296 295 295 295 294 294 295 295 296 296 296 297
285 284 284 284 284 284 283 284 284 284 284 285 284 285 285 286 287 287 285 284 285 283 284 283 284 284 285 286 285 284 284 285 289 283 282 282 285 285 286 292 294 295 295 295 295 295 294 294 294 294 294 294 294 294 295 295 294 294 294 294 294 295 295 294 293 293 293 293 294 294 295 295 295 295
284 284 284 284 284 284 284 284 284 284 284 284 284 284 284 285 285 285 284 284 285 281 282 282 283 283 285 284 285 283 282 283 285 284 282 282 282 282 283 285 291 293 294 294 295 295 294 294 294 294 293 293 294 294 294 294 293 294 294 293 295 295 294 293 293 293 293 293 293 293 294 294 295 294
285 284 284 284 285 285 284 284 284 284 284 283 283 284 283 284 284 284 284 284 284 284 280 280 280 282 285 283 284 284 282 282 283 281 281 281 282 282 282 282 285 292 293 293 294 294 294 294 294 294 294 294 293 293 293 293 293 293 293 292 293 293 294 294 293 292 292 293 293 293 294 294 294 294
285 284 284 284 285 285 284 284 284 284 283 284 283 284 284 283 284 283 284 284 283 283 280 280 280 281 283 284 283 284 283 283 283 281 280 280 281 282 281 281 281 289 292 293 293 293 293 293 294 294 294 293 293 293 293 292 292 292 292 293 292 292 291 291 291 291 291 292 293 293 293 293 293 293
284 285 284 285 285 284 284 284 284 283 283 283 284 283 284 284 284 283 283 283 284 283 281 280 281 282 282 283 283 284 283 282 281 281 281 280 280 280 280 279 279 284 291 292 292 293 293 293 293 294 294 293 293 293 292 292 292 291 292 292 292 291 291 290 290 290 291 292 292 293 293 292 292 292
284 284 284 285 285 284 284 284 284 284 283 284 283 283 284 284 284 284 283 283 283 282 281 281 281 282 282 283 281 283 281 280 280 280 280 279 279 279 279 279 280 283 288 290 291 292 292 293 293 293 294 294 293 293 292 292 292 291 291 291 290 291 290 290 289 289 290 290 290 290 291 291 292 292
284 284 284 285 285 284 284 284 284 284 284 284 284 283 284 284 284 283 283 283 283 282 282 281 280 280 281 280 280 282 282 280 279 278 278 278 278 278 278 278 280 281 284 286 288 290 291 291 292 293 293 293 293 292 292 291 291 291 290 290 290 290 290 289 289 289 289 289 289 290 290 291 291 291
284 284 284 284 284 284 284 284 284 285 284 284 284 284 284 284 283 283 283 283 282 282 282 280 280 280 281 281 280 281 282 281 280 278 277 276 278 278 278 278 279 281 282 286 288 287 287 289 290 291 292 293 293 292 292 291 291 290 290 289 289 289 289 288 288 289 289 289 289 289 289 289 290 290
283 284 284 284 284 284 284 284 285 285 285 285 284 285 284 284 284 283 283 283 283 282 282 281 280 280 280 280 279 280 280 279 278 279 278 276 277 277 279 279 279 280 280 281 283 287 288 288 290 291 292 292 292 292 291 291 290 289 289 289 289 289 288 288 288 288 289 289 289 289 288 288 289 289
283 283 284 284 284 285 285 286 286 286 286 285 285 285 284 284 284 284 284 284 283 283 283 281 280 279 279 280 279 278 278 278 278 279 279 278 279 278 278 278 280 280 279 279 281 282 284 283 284 285 286 287 290 290 290 289 289 289 289 289 289 289 288 287 288 288 288 288 288 288 288 288 288 288
283 283 283 284 285 285 285 286 286 287 288 288 287 286 285 285 284 284 283 283 283 283 283 282 281 279 279 280 280 279 280 281 281 279 279 278 278 278 277 278 278 280 279 278 278 280 283 282 282 282 282 284 286 286 287 285 287 288 289 289 289 288 287 287 288 288 288 288 288 288 288 288 287 287
281 282 283 283 283 284 285 285 286 287 288 288 288 288 288 287 285 283 283 283 283 283 283 283 282 280 280 280 281 280 280 280 280 280 279 279 278 277 276 275 277 279 279 278 277 278 281 281 280 280 281 281 282 284 284 287 288 288 289 289 289 288 287 288 288 288 288 288 288 288 288 287 287 287
281 281 282 282 283 283 283 283 283 285 287 288 288 288 288 288 289 288 285 284 283 283 283 283 283 282 281 281 281 280 280 279 280 280 280 279 278 277 277 277 277 278 280 278 277 277 280 281 280 279 279 280 281 282 285 288 288 288 288 288 288 287 288 288 288 288 288 288 287 287 287 287 287 287
280 280 280 281 282 283 284 284 284 283 283 285 287 288 288 288 289 289 290 289 286 285 284 283 283 283 282 281 281 281 281 281 279 280 279 279 279 279 278 278 279 278 280 279 278 277 278 279 278 278 279 280 280 282 286 288 288 289 288 287 287 288 287 287 287 287 287 287 287 287 287 286 286 286
280 280 279 279 280 281 282 283 283 283 283 283 283 283 284 285 286 288 289 289 289 287 285 284 283 285 284 282 283 282 283 281 280 280 279 280 279 279 279 280 281 280 281 278 278 277 278 278 278 277 278 280 280 280 284 287 288 288 288 287 287 287 287 287 287 287 287 287 287 286 286 286 286 286
279 280 280 280 280 280 281 281 282 282 282 282 282 282 282 283 283 284 285 286 287 287 287 286 285 285 286 285 284 282 283 282 282 282 282 281 281 281 282 280 280 279 280 280 279 276 278 278 277 277 278 279 279 279 284 287 287 288 287 287 287 287 287 287 287 287 287 286 286 286 286 286 286 286
278 279 280 279 280 280 281 283 285 285 283 281 281 281 282 282 283 283 286 287 288 287 287 287 287 286 286 288 285 283 283 283 283 283 283 282 281 280 279 278 277 276 279 280 279 278 277 278 277 277 278 278 277 278 279 286 287 288 288 288 287 287 287 287 287 287 286 286 286 286 286 286 286 286
277 278 278 279 279 280 280 283 285 286 286 282 281 281 280 281 282 282 284 287 289 289 289 289 290 290 290 290 291 291 288 284 284 282 280 279 280 279 277 277 276 276 278 279 280 279 276 277 277 277 277 277 277 277 278 281 287 288 288 288 288 287 287 287 287 286 286 286 285 285 285 285 285 285
275 276 278 279 278 278 279 283 284 285 284 282 282 281 280 280 280 281 283 283 285 288 289 289 289 289 290 290 291 291 290 288 287 281 279 280 280 278 279 278 277 277 278 278 280 278 276 278 278 276 275 276 277 277 277 278 282 287 287 288 288 287 287 287 287 286 286 285 285 285 285 285 285 282
273 274 276 277 278 278 279 283 284 285 283 282 281 281 280 280 280 281 282 282 281 282 283 285 286 286 287 287 287 287 289 288 286 283 282 282 280 279 279 279 277 274 276 279 281 277 276 275 277 276 273 271 274 276 277 278 279 281 282 283 284 286 286 287 286 286 285 284 284 284 285 284 284 280
272 273 273 274 277 279 280 281 282 283 285 282 281 281 280 280 279 282 282 282 282 282 282 283 284 284 285 286 286 286 286 286 285 283 283 283 282 280 280 280 278 277 278 279 281 278 277 276 276 277 276 273 271 273 276 276 277 278 279 279 279 284 286 286 285 285 283 284 284 284 284 283 282 277
270 270 271 272 275 277 278 278 279 281 282 283 282 281 281 281 282 284 282 282 284 282 282 282 283 283 284 284 285 285 285 285 285 284 283 283 283 282 281 280 279 279 280 279 283 279 275 276 275 277 274 273 274 273 274 275 276 276 277 277 277 280 281 281 280 279 282 283 283 283 283 282 282 279
269 270 271 272 275 277 278 279 279 280 281 282 281 282 285 286 286 284 283 282 282 282 282 281 281 282 282 282 283 284 284 285 285 284 283 283 283 283 283 282 281 279 278 280 284 280 278 275 276 276 275 272 272 273 272 272 275 276 276 276 276 277 278 277 275 275 276 277 278 280 279 281 281 281
267 268 269 271 274 276 277 278 279 280 281 281 280 284 285 286 287 286 283 282 281 281 281 281 280 281 281 281 281 282 283 284 285 285 284 283 283 283 283 284 284 283 281 280 282 280 279 276 278 276 275 274 273 272 272 271 272 275 275 275 275 276 276 275 274 274 274 275 275 278 279 280 281 281
268 268 269 270 275 276 278 279 280 281 281 279 281 283 284 286 286 285 283 282 281 281 280 280 280 281 281 281 281 281 282 283 283 284 284 284 283 283 283 283 282 282 281 280 281 280 280 278 277 278 278 275 273 272 270 273 273 273 272 275 274 275 275 275 274 275 275 275 275 276 275 275 276 276
268 270 273 274 275 276 277 278 278 280 280 281 282 282 283 284 284 284 283 282 281 280 280 280 281 281 281 281 282 283 282 282 283 282 282 282 283 283 283 281 279 279 280 280 280 280 280 279 278 278 277 276 275 274 274 272 272 272 272 272 271 273 274 275 274 274 274 274 273 274 273 274 274 276
274 274 274 275 275 275 275 273 274 275 277 281 282 282 282 282 282 283 283 282 281 280 280 280 280 281 282 282 282 283 282 281 281 280 279 276 274 274 274 274 273 274 276 279 280 280 280 279 278 277 276 276 276 275 274 272 271 272 273 272 272 274 274 274 273 274 274 273 273 273 274 274 274 275
267 268 270 270 273 274 276 276 277 277 277 278 280 280 280 281 281 282 282 282 282 281 281 280 281 281 282 282 282 280 280 280 280 281 279 277 274 273 274 274 271 271 271 274 277 279 279 278 277 277 275 274 274 274 275 273 271 271 272 273 272 268 272 273 273 273 273 273 273 273 273 274 274 275
267 267 271 272 271 272 272 273 274 274 276 278 280 280 280 280 281 282 283 284 283 282 282 281 281 281 281 280 279 280 279 279 279 280 278 277 274 273 273 272 270 270 269 270 272 273 275 275 276 277 277 275 273 272 272 272 271 271 271 272 272 272 272 271 272 272 273 273 272 271 272 272 272 273
269 270 270 270 271 271 271 271 272 273 274 276 278 280 280 280 281 281 281 281 282 283 282 281 281 280 280 279 279 278 278 278 278 278 277 276 274 272 274 273 272 268 268 268 269 270 272 273 273 274 273 273 274 273 271 269 270 271 270 271 271 271 271 272 272 272 272 271 270 270 270 272 272 273
270 269 269 269 269 270 270 270 271 272 273 274 276 277 279 279 280 280 281 282 282 283 282 282 281 280 279 278 278 277 277 277 277 277 277 275 274 272 272 272 271 269 270 268 268 269 270 270 271 270 271 270 271 271 271 270 269 269 270 271 270 269 271 271 271 272 272 270 270 269 269 270 272 272
269 268 268 269 269 270 270 270 270 272 273 274 275 276 277 278 279 280 281 281 282 282 282 282 281 280 279 278 277 276 276 276 275 275 275 274 273 272 272 272 269 268 268 268 268 269 269 269 269 268 267 268 268 268 272 271 270 269 270 270 270 269 270 271 271 271 271 271 271 268 268 269 270 271
269 269 268 268 269 269 269 270 271 271 272 273 274 276 276 277 278 279 280 281 282 282 282 281 280 280 279 278 277 276 276 275 274 273 273 272 271 271 272 271 269 268 268 268 268 269 268 268 268 267 266 265 265 265 266 272 273 271 268 268 269 269 270 271 271 271 270 269 270 269 267 266 268 270
268 268 268 267 268 268 268 270 270 271 272 273 273 275 276 276 277 279 280 282 281 281 281 281 280 279 278 277 276 275 274 273 272 272 271 271 271 271 271 270 268 267 267 267 268 268 268 268 268 268 267 265 265 266 267 270 271 274 271 269 268 269 269 269 269 268 269 270 269 269 267 268 267 269
268 268 268 268 268 269 269 269 270 271 272 273 274 275 276 276 277 279 281 281 281 280 280 280 279 278 278 276 275 274 273 273 272 271 270 270 270 270 270 269 267 267 267 267 267 267 268 268 268 268 268 267 266 266 265 267 268 270 274 271 268 268 269 268 267 266 267 270 268 269 270 267 268 269
269 268 269 268 269 269 269 269 270 271 272 273 274 275 276 276 277 278 279 279 278 278 279 279 278 277 277 275 274 273 272 271 270 270 270 270 270 270 270 269 267 267 267 266 266 267 267 267 267 268 269 269 268 268 268 267 266 269 273 273 270 269 268 267 266 267 266 266 268 269 268 270 270 272
270 270 270 270 269 269 269 269 270 271 272 273 275 276 277 277 277 277 278 278 278 279 279 278 277 276 275 275 274 273 272 271 271 270 270 269 270 270 270 269 268 267 266 266 265 265 266 266 267 268 269 268 267 268 267 267 267 269 271 273 273 270 268 269 266 266 265 267 267 266 263 267 264 268
270 270 271 271 270 270 270 270 271 272 273 274 275 276 276 276 276 277 277 278 277 277 277 276 276 275 274 274 273 272 271 271 271 270 270 269 269 269 270 269 268 268 266 266 265 265 266 267 269 272 268 267 268 269 268 266 264 266 267 269 273 273 273 272 269 268 265 268 267 263 263 262 263 264
270 270 272 272 271 271 271 271 272 273 273 275 276 277 277 276 276 277 277 277 277 276 276 275 274 274 274 273 273 272 271 270 270 269 269 269 269 269 269 269 267 267 266 266 266 266 268 270 270 268 267 268 267 266 265 266 264 265 266 266 267 272 274 273 272 272 270 268 265 262 262 263 265 262
269 270 271 272 273 272 272 272 273 273 274 275 275 276 275 275 276 276 276 276 276 275 274 274 274 274 273 273 272 272 271 270 269 269 269 269 268 268 268 268 268 267 267 267 267 267 268 268 268 267 267 267 266 267 265 265 264 264 264 264 265 266 268 272 273 273 273 273 272 269 267 265 262 259
267 268 270 271 273 274 274 274 274 275 276 275 275 274 274 274 274 275 275 275 274 274 274 273 273 272 272 271 271 271 270 270 269 269 268 268 268 268 268 268 267 267 267 266 266 266 267 267 267 267 266 265 266 265 264 263 262 264 264 264 264 264 264 265 266 269 270 270 271 271 272 272 272 271
266 267 268 270 272 274 275 275 275 275 275 274 273 273 273 273 274 274 274 274 273 273 272 271 271 270 270 270 270 269 269 270 269 268 268 268 268 268 267 267 267 266 266 266 265 265 266 266 266 266 265 265 265 264 264 264 263 263 263 263 262 264 263 264 263 263 263 263 267 269 270 270 271 271
Wind_Speed
7 7 8 8 8 7 6 7 7 7 7 7 7 8 11 9 11 8 8 9 9 7 10 8 10 12 10 10 8 9 10 11 14 10 9 9 8 14 21 21 20 20 21 21 20 19 18 17 16 14 13 13 13 10 9 8 6 8 6 5 5 5 4 4 4 4 3 3 2 3 3 3 3 3
7 7 7 7 8 7 7 8 7 7 8 8 7 8 8 8 13 11 10 11 9 7 6 9 6 10 12 11 9 10 11 12 16 10 10 10 10 15 22 21 21 21 21 21 20 20 19 18 17 16 14 13 12 12 11 9 9 7 7 6 5 4 4 4 3 3 3 2 2 2 2 3 4 4
6 7 9 8 8 7 8 9 7 7 7 7 7 7 7 9 12 13 7 12 6 9 9 10 8 9 13 11 10 8 9 12 16 11 10 10 12 17 16 22 22 22 22 21 20 19 19 18 17 16 15 14 13 13 12 11 9 8 7 6 5 4 4 3 2 2 2 1 1 2 2 3 3 3
6 7 8 9 8 8 7 9 7 8 8 7 7 8 8 9 10 10 9 13 14 8 11 10 12 11 12 12 12 11 8 9 19 11 10 10 12 12 9 19 23 23 22 22 21 20 19 18 17 16 16 15 14 13 12 11 11 9 8 7 7 5 4 3 2 1 1 1 0 1 2 2 2 2
6 8 9 9 9 7 9 9 7 8 8 7 8 8 7 9 8 9 10 13 14 4 4 4 8 9 10 9 12 12 10 9 11 10 10 10 11 10 9 9 19 22 22 22 22 21 20 19 18 17 16 16 15 14 13 12 11 10 8 8 7 6 5 4 4 4 3 2 1 1 0 1 1 1
7 7 9 10 9 8 9 9 9 8 8 8 9 9 8 9 9 8 9 12 11 12 3 4 3 6 10 11 10 15 14 13 11 12 11 10 11 10 9 8 9 20 21 22 22 21 21 20 19 18 18 17 16 15 14 12 11 10 9 8 7 5 5 5 4 1 2 3 3 2 1 1 1 2
8 8 8 9 8 7 9 10 9 8 9 8 10 12 9 10 10 8 9 9 11 11 8 6 7 9 9 13 14 15 13 12 12 13 11 12 9 8 9 9 7 14 21 22 22 22 21 20 19 19 19 18 17 17 16 14 13 11 10 10 8 8 6 4 5 5 4 5 4 3 2 3 3 3
8 9 9 9 8 8 10 10 9 8 8 9 10 11 11 10 11 8 8 10 10 8 9 7 10 8 10 10 6 8 7 10 11 12 10 5 8 8 8 9 8 11 20 22 22 22 21 20 20 20 19 19 18 18 18 16 15 13 11 10 9 8 7 6 6 5 5 5 5 5 5 4 3 3
9 9 10 10 8 8 10 10 9 9 10 10 10 11 11 10 10 7 8 10 9 8 10 7 6 6 8 6 5 10 12 9 8 8 10 11 10 8 6 5 6 10 20 21 22 21 21 21 21 21 20 20 19 19 18 17 16 15 13 12 11 10 9 9 8 7 7 5 4 4 4 4 4 4
8 9 10 10 9 9 10 10 10 9 11 10 11 12 11 10 9 10 9 9 9 10 11 8 7 6 9 6 6 11 12 12 10 7 7 4 7 8 8 9 7 7 8 9 11 16 18 21 22 21 20 21 20 19 18 18 17 16 15 14 13 12 11 11 10 9 8 7 6 6 6 5 5 5
9 9 10 10 10 10 11 11 11 10 11 10 12 12 11 10 10 11 11 10 10 11 11 8 8 9 9 10 11 9 11 11 12 14 12 9 7 8 11 11 8 8 9 9 13 12 11 13 13 19 21 21 20 19 18 18 17 16 16 15 15 14 13 12 11 10 9 9 8 7 6 6 6 6
10 10 10 10 11 11 11 11 11 10 11 10 11 11 9 9 10 12 11 10 11 12 11 11 9 8 9 8 2 3 8 9 8 8 11 14 13 13 13 14 13 10 9 9 9 11 12 13 16 19 19 21 20 20 18 19 16 16 16 16 16 16 15 14 13 12 11 10 9 9 8 7 6 6
11 11 10 11 11 13 16 18 16 14 13 10 11 10 8 8 10 11 11 10 11 11 12 11 7 8 9 11 11 11 13 17 19 13 11 12 14 11 8 9 8 9 11 9 8 9 10 10 10 9 9 11 17 17 18 12 18 18 17 17 17 16 16 15 14 14 13 12 11 10 9 8 7 6
12 12 12 12 17 18 20 20 20 21 21 20 16 12 9 10 11 11 12 12 12 12 13 13 11 10 13 13 15 15 17 14 8 10 14 15 9 7 9 7 7 8 9 10 11 10 9 10 9 9 10 9 11 8 11 9 10 14 19 18 18 17 16 16 16 15 14 14 13 12 11 10 8 7
15 14 13 12 14 16 17 17 21 22 23 22 23 23 21 16 13 11 13 13 12 12 13 12 11 13 16 16 14 15 12 11 14 16 15 13 10 13 14 14 7 9 12 11 9 10 10 10 12 11 11 11 10 10 10 14 18 18 19 19 19 18 18 18 17 16 16 15 14 12 12 10 9 8
13 14 14 13 11 12 13 13 13 17 21 23 23 24 23 23 24 22 16 14 13 13 14 14 14 13 16 16 13 12 11 13 13 11 11 14 15 15 14 14 13 11 17 13 13 15 10 11 11 10 11 10 11 12 14 20 20 20 21 20 20 20 19 18 18 17 16 15 14 12 11 9 8 8
16 14 13 13 12 12 18 16 14 14 14 18 23 24 24 25 25 25 28 26 19 13 14 15 16 16 14 13 12 14 14 11 13 13 13 14 14 13 15 15 12 8 18 14 13 15 12 13 13 13 11 10 10 11 17 22 22 21 22 22 22 21 20 19 18 17 16 15 14 13 11 10 10 9
17 17 16 15 14 13 14 13 14 14 14 13 13 14 14 15 19 24 27 27 28 24 17 16 17 17 13 13 11 11 13 15 16 16 16 15 15 15 18 15 10 8 16 21 17 11 10 13 11 12 10 9 10 10 16 24 23 23 23 23 23 22 20 19 19 18 16 15 14 13 12 12 11 11
17 18 17 17 17 17 15 13 14 14 14 13 12 13 14 15 15 15 17 18 18 17 16 18 19 18 14 13 11 11 15 18 17 17 18 18 17 16 11 4 5 5 11 11 8 14 10 10 12 13 10 10 10 9 15 23 24 24 24 24 23 21 21 19 19 18 17 15 14 14 13 13 12 12
17 16 17 17 18 19 18 17 21 20 15 13 15 16 15 15 14 15 17 22 21 18 16 17 18 16 14 14 12 11 14 14 13 10 7 5 8 9 9 13 7 6 10 16 14 9 7 11 13 12 8 8 9 9 9 20 25 25 25 25 24 23 21 21 20 19 17 16 15 13 13 13 12 11
15 16 15 16 16 17 19 19 23 24 23 16 17 17 17 16 14 15 14 18 25 25 25 25 26 26 23 22 22 15 19 16 14 11 10 14 13 13 14 13 8 10 9 11 13 7 5 10 12 8 7 10 10 10 11 11 20 25 25 25 25 22 22 22 21 20 18 16 15 14 13 12 11 11
13 16 30 28 20 20 21 23 29 28 22 18 18 18 18 18 17 16 14 11 12 22 25 26 27 27 25 24 24 22 19 21 17 16 19 17 12 13 14 16 13 9 9 13 13 9 8 9 8 7 3 5 4 7 7 9 11 21 20 24 23 22 22 22 22 19 18 16 15 14 13 12 10 6
14 15 20 30 28 25 25 33 32 33 28 19 18 18 18 19 19 17 15 13 12 11 13 16 18 18 20 19 17 17 22 23 23 19 19 13 15 17 18 14 7 6 10 13 16 13 7 12 9 10 7 5 2 4 8 9 9 9 9 12 15 20 21 22 21 20 17 15 15 14 14 13 10 5
15 14 14 20 31 34 34 35 37 35 35 24 19 18 18 18 21 15 15 14 13 14 15 15 15 16 15 14 14 15 15 16 21 21 19 16 16 18 16 14 14 16 11 9 16 13 5 10 12 12 9 8 9 8 9 9 10 9 8 9 8 16 20 20 17 20 16 15 15 14 14 13 9 6
15 16 16 17 25 33 35 35 36 36 36 36 24 21 20 19 18 15 15 14 20 15 15 14 13 12 12 12 12 13 15 15 14 16 18 17 17 17 17 16 16 16 7 12 23 13 8 12 11 9 6 1 1 7 8 9 9 10 9 9 9 8 8 9 7 8 12 15 15 14 13 13 11 8
17 18 17 16 20 29 30 31 32 35 35 37 27 23 26 26 24 21 16 12 12 12 12 11 12 11 11 11 12 13 14 15 16 15 15 16 16 15 15 15 16 14 10 12 28 16 12 10 14 15 10 5 2 7 10 6 9 6 8 7 9 9 8 8 7 6 5 5 6 8 9 12 11 12
17 18 19 21 31 33 34 34 35 35 38 33 26 36 39 38 32 25 17 13 12 12 12 12 13 12 12 12 13 13 14 14 15 15 14 15 15 13 12 13 12 12 6 12 17 14 13 11 13 15 14 9 7 7 10 11 8 8 5 7 7 7 8 8 8 8 7 6 6 12 12 12 11 10
18 18 18 21 31 33 33 34 34 35 34 26 35 36 40 35 29 19 16 14 13 13 13 13 13 13 13 12 13 13 13 13 13 14 14 14 15 14 12 12 9 5 8 15 17 16 13 11 12 13 14 14 12 12 10 2 3 9 10 9 6 6 6 6 6 6 6 5 7 6 5 4 4 4
17 23 33 35 35 34 35 36 36 32 34 38 35 37 40 32 18 17 15 15 13 14 14 14 14 14 13 14 14 13 11 10 8 9 9 10 12 13 13 9 5 5 8 11 14 16 15 14 14 14 11 11 13 11 12 13 12 10 13 13 9 8 9 7 6 8 7 6 6 6 6 6 5 5
37 36 35 37 35 31 27 21 17 18 20 30 34 36 35 20 17 15 15 14 15 15 14 15 15 14 12 12 12 11 10 10 11 10 8 6 5 6 7 6 2 1 2 10 14 15 15 13 13 15 14 12 10 10 8 9 6 7 12 8 9 7 5 8 7 7 7 8 7 6 5 5 5 5
21 24 24 21 25 25 32 33 31 29 28 25 22 19 18 16 14 14 13 14 15 14 14 13 13 12 12 9 9 10 10 11 11 11 10 9 8 7 7 9 5 4 2 1 4 10 13 12 12 15 15 11 7 7 7 8 12 12 11 9 14 11 11 10 8 8 7 7 7 6 5 5 4 5
18 17 20 24 18 16 16 16 13 14 17 18 19 17 15 15 15 17 20 19 15 14 13 12 11 10 10 10 10 10 11 11 10 10 11 11 9 9 9 8 8 5 4 3 4 4 4 4 8 11 12 14 13 7 5 7 10 11 11 12 7 3 6 8 10 8 8 8 7 7 6 6 6 5
16 13 14 13 14 12 12 11 12 13 15 14 12 12 12 12 12 12 12 15 16 14 12 12 12 12 11 11 10 10 10 11 11 10 11 11 12 9 11 13 10 10 10 7 5 5 5 6 6 5 4 2 4 12 13 9 6 9 12 11 8 8 7 8 8 9 9 7 5 6 5 6 5 6
16 12 11 10 11 11 11 11 12 13 13 13 12 10 11 12 11 12 13 14 14 13 13 12 12 12 11 11 11 11 12 10 10 10 13 12 11 12 12 12 10 10 10 11 10 9 8 7 7 8 8 7 5 3 1 7 10 9 8 6 7 9 7 7 7 8 8 7 7 6 5 5 5 5
12 11 12 12 12 12 11 12 11 11 11 12 12 13 10 9 11 14 14 14 13 13 12 12 12 11 12 12 11 12 12 12 10 9 9 10 11 13 13 13 10 11 11 11 10 9 9 10 9 8 6 4 3 2 2 1 7 9 6 5 3 6 7 7 7 8 8 7 7 6 4 4 5 5
12 11 11 11 10 10 10 11 11 11 12 13 14 14 12 10 10 12 13 13 12 12 11 12 11 11 11 11 11 11 11 10 10 10 10 10 11 11 10 11 11 11 11 11 11 10 10 11 12 14 12 9 8 7 6 7 6 6 11 9 8 6 6 7 7 6 7 5 6 6 6 5 4 4
12 11 12 12 12 12 12 10 10 11 11 11 13 12 11 9 9 11 12 13 12 11 12 11 11 10 11 10 10 10 10 11 11 11 11 10 10 10 10 9 10 10 11 10 10 11 11 11 10 13 13 12 12 15 9 5 9 9 4 9 8 7 7 7 7 6 5 6 4 5 4 4 4 4
11 12 11 12 12 11 11 10 11 11 11 10 10 10 12 10 9 10 9 10 11 10 11 11 10 10 10 9 10 10 10 10 10 11 10 10 11 11 11 11 10 10 10 10 9 10 10 11 13 13 14 15 14 11 7 5 4 8 11 7 9 8 6 7 7 7 6 4 5 4 4 3 4 4
11 11 13 12 12 11 10 9 10 10 10 10 11 11 11 9 8 8 9 9 7 7 8 10 9 9 10 10 10 11 11 10 10 11 11 11 12 12 11 10 10 10 11 10 9 9 9 10 11 12 12 13 14 11 10 11 10 9 12 15 6 8 7 7 7 5 6 5 4 3 2 2 4 8
12 11 12 12 12 11 10 10 9 9 10 11 10 11 11 10 7 7 8 8 8 10 10 10 10 9 9 10 11 10 11 15 15 13 14 13 12 12 12 12 12 13 12 12 11 9 11 11 10 10 7 3 6 7 7 5 6 5 7 11 14 9 6 6 7 6 5 4 4 3 2 2 2 2
14 14 13 12 11 9 10 10 10 10 10 11 12 11 10 8 7 6 6 7 7 8 9 8 9 10 11 11 11 12 13 12 11 11 12 12 13 13 13 12 10 11 13 13 12 12 12 10 9 11 10 7 8 9 8 7 6 6 8 7 13 13 12 9 6 6 4 4 5 4 4 3 2 1
12 13 14 12 10 9 9 11 10 10 10 11 11 11 10 9 8 9 8 9 9 9 8 9 9 10 10 11 12 12 12 13 12 11 10 10 10 10 11 11 11 10 11 12 12 11 7 8 10 10 8 9 8 9 8 9 9 7 7 4 3 8 12 11 9 7 6 6 5 3 2 1 1 1
14 13 14 14 11 9 9 10 10 10 11 10 10 8 7 6 6 7 7 7 8 8 8 9 9 10 10 9 10 10 10 10 10 11 11 11 11 12 12 11 10 10 10 8 8 8 9 10 9 10 9 8 5 6 8 7 7 8 7 6 5 4 3 5 7 9 10 9 8 5 4 3 3 1
13 14 13 14 13 10 9 10 10 10 9 9 9 7 6 6 7 8 8 8 8 8 7 7 7 7 7 7 7 7 8 9 10 11 12 11 11 11 11 10 10 9 8 8 9 9 9 9 9 10 10 8 6 7 8 9 9 7 6 5 4 5 4 3 4 4 3 2 4 5 7 9 10 11
14 13 14 13 11 9 7 7 7 8 8 7 6 6 6 6 7 6 6 6 6 5 6 6 6 6 7 8 9 9 8 8 9 8 9 9 9 9 9 10 10 10 10 10 11 10 9 9 8 7 7 6 5 6 7 8 8 7 6 6 6 4 3 3 2 1 1 3 5 7 9 11 12 13
Wind_Direction
264 265 259 251 256 248 239 239 236 235 232 230 218 200 209 207 232 229 228 230 220 233 202 197 216 203 201 198 193 183 195 190 182 182 182 182 186 201 199 200 199 195 194 195 196 196 197 201 205 209 209 208 210 212 214 207 202 198 198 188 189 197 193 185 165 163 161 142 133 114 106 94 83 63
268 267 270 263 262 256 250 244 238 235 231 230 223 218 221 206 225 230 221 245 191 222 215 210 198 197 204 196 192 192 195 191 183 184 184 185 188 197 199 201 201 199 199 199 198 196 197 199 202 206 206 206 207 211 209 207 209 207 202 205 208 212 199 197 172 159 121 120 101 109 100 93 74 61
270 270 270 269 265 259 256 256 246 243 241 236 231 232 224 225 226 233 209 251 225 181 201 218 208 194 201 193 192 193 193 191 188 184 188 192 187 193 202 203 203 202 201 200 200 200 198 200 202 203 203 204 206 209 210 210 208 207 207 211 215 219 208 186 155 115 107 105 114 104 97 71 62 48
272 272 271 268 266 265 257 257 252 249 242 236 238 231 227 232 232 232 227 234 245 182 203 201 201 192 189 189 188 195 191 196 191 187 189 189 181 195 203 205 204 202 200 200 199 199 198 199 202 203 203 204 206 207 211 210 211 207 206 208 212 216 204 170 151 134 155 211 182 86 69 62 54 39
270 269 269 269 266 262 261 260 258 253 247 245 242 236 229 233 228 224 232 238 250 223 236 171 197 189 171 191 193 189 190 187 197 189 189 183 191 194 198 202 208 204 202 200 198 197 197 198 200 202 203 204 206 208 210 210 209 208 205 207 215 205 192 184 172 194 198 211 174 124 45 25 50 35
270 265 268 270 268 262 258 260 259 254 253 244 247 246 232 232 231 216 220 240 242 241 179 196 166 174 188 192 190 189 185 197 190 193 192 194 193 193 188 194 206 207 204 202 200 198 197 198 199 200 202 201 202 206 207 207 205 204 207 208 212 205 200 197 186 175 190 212 204 202 197 197 210 223
275 274 268 268 267 267 266 262 256 255 253 250 247 250 240 239 235 218 216 227 240 237 228 191 182 190 189 194 193 197 198 193 187 190 193 194 195 193 186 191 195 210 205 205 202 200 198 198 199 201 201 201 201 202 204 202 202 204 206 207 203 197 186 179 188 199 208 218 217 217 209 204 214 220
273 270 275 270 262 260 264 265 262 255 250 250 251 253 249 246 245 222 216 221 234 228 222 205 194 191 184 213 202 198 181 178 187 197 195 186 194 192 191 192 191 209 210 209 205 201 199 198 200 202 203 203 202 201 201 199 198 199 201 202 199 194 182 185 192 203 215 220 220 213 211 218 232 246
269 270 267 271 268 259 262 266 264 261 255 252 251 252 251 249 249 239 218 226 223 225 225 213 205 188 207 202 180 181 174 180 188 193 193 197 194 191 190 192 203 203 214 214 210 204 200 199 201 203 203 205 204 202 201 198 195 194 195 195 198 198 194 187 187 192 202 208 212 226 225 230 233 239
265 265 266 265 264 261 258 261 259 257 258 256 253 252 252 249 250 247 239 228 227 225 233 204 186 197 191 181 191 188 184 177 183 195 202 179 190 184 191 205 200 198 199 201 208 207 205 202 202 202 204 205 205 204 203 201 198 194 192 193 193 195 190 188 187 191 198 197 202 208 218 229 236 239
267 262 263 263 260 260 257 258 256 252 251 248 253 252 252 248 246 247 244 237 231 230 232 222 199 193 204 191 191 193 190 194 192 187 179 196 199 198 201 203 203 199 203 211 208 208 205 201 199 202 204 205 206 206 206 204 201 196 194 192 192 191 190 189 189 191 194 195 198 206 212 223 232 237
263 262 260 260 258 255 256 254 255 250 252 249 250 249 249 248 244 245 246 242 237 234 230 223 208 198 189 205 183 105 170 187 212 203 186 191 193 205 207 205 194 195 191 195 202 208 207 206 204 204 205 206 207 208 206 206 203 201 197 196 195 192 191 191 190 189 192 196 198 203 207 213 225 234
262 261 258 258 256 253 254 252 251 248 244 247 252 248 238 243 246 246 245 241 239 241 235 230 202 190 196 202 182 175 188 197 201 183 179 208 211 203 195 214 204 190 191 195 193 203 198 198 203 194 197 204 205 208 205 203 205 201 201 199 198 195 191 191 190 190 192 196 197 200 203 210 212 224
263 259 261 258 255 255 255 255 254 254 251 247 245 249 239 236 240 243 245 241 238 239 239 233 209 198 209 203 199 196 201 198 171 170 195 206 191 165 210 222 212 192 181 186 201 209 198 197 203 199 201 198 200 193 197 194 193 200 201 199 196 194 193 192 191 191 192 193 195 197 201 202 203 213
271 269 260 258 259 259 259 257 255 253 252 251 249 248 244 237 234 237 239 241 238 238 239 240 226 215 216 211 201 205 196 189 188 191 192 195 178 188 187 209 202 191 187 194 199 214 202 191 201 204 203 195 193 192 198 189 194 198 202 199 196 193 193 192 192 192 190 191 190 194 196 198 201 205
266 264 264 260 258 254 252 253 253 252 250 250 249 247 245 243 240 236 233 237 240 235 240 238 233 227 225 216 196 200 191 193 196 197 189 195 192 192 201 208 203 191 177 183 198 216 191 194 205 203 207 196 194 193 188 191 195 197 198 199 197 195 192 192 192 191 190 189 190 188 189 192 198 209
272 270 265 262 256 255 251 249 248 248 248 247 246 246 246 244 242 242 241 237 235 236 239 241 240 232 231 223 208 197 193 177 191 190 199 203 208 207 207 209 198 143 178 185 199 213 193 186 199 208 205 195 190 189 191 193 196 196 197 198 196 193 192 194 194 193 192 191 188 186 187 190 195 202
272 270 269 267 262 256 251 245 245 245 245 245 244 244 242 241 241 241 241 242 240 235 235 239 244 241 232 229 219 192 177 183 195 196 204 198 202 206 215 213 200 165 174 186 191 203 193 190 190 210 208 189 193 191 189 192 195 196 196 196 194 192 194 194 194 193 192 191 190 191 190 192 195 198
272 270 269 267 266 264 256 246 237 241 242 243 242 241 241 238 237 235 236 237 237 236 234 238 245 248 239 239 225 185 192 196 199 196 199 195 200 211 222 234 220 175 192 196 171 207 193 161 192 212 191 186 193 190 189 192 192 194 195 193 192 193 194 195 193 193 192 193 194 195 196 195 196 199
273 271 267 266 265 264 263 254 242 238 236 239 240 241 241 240 238 237 232 232 232 231 233 235 239 243 243 242 233 196 195 199 199 199 205 202 206 206 206 217 191 187 189 190 191 200 162 181 193 201 180 173 186 185 191 194 193 193 193 192 193 194 194 193 193 191 192 194 197 199 199 199 200 201
273 273 273 272 271 266 265 261 255 250 242 242 240 241 241 240 239 241 238 233 234 233 233 237 240 242 241 241 242 214 192 190 185 182 189 206 193 197 208 217 190 211 180 200 204 186 163 183 187 178 174 182 184 185 190 192 194 192 192 192 193 193 193 193 191 190 191 194 197 200 199 202 203 205
274 273 274 272 270 268 266 264 261 256 249 246 244 243 241 243 241 241 238 233 233 234 236 236 238 240 239 238 241 239 206 191 177 187 202 203 185 204 210 213 202 199 183 202 191 185 203 154 166 156 130 133 209 191 187 189 193 193 193 193 193 193 193 192 190 188 190 194 196 195 197 200 203 201
270 269 270 271 271 272 272 269 265 259 253 246 243 242 241 241 240 238 233 229 225 226 230 235 238 240 239 236 232 238 232 203 196 199 206 191 186 203 212 210 171 191 222 203 180 191 178 143 180 155 135 190 249 165 183 186 187 191 182 190 194 196 194 193 189 188 190 194 194 193 195 196 190 157
283 276 275 276 276 274 273 272 271 269 262 253 244 241 240 238 241 235 235 224 217 225 223 228 229 232 231 229 228 228 229 222 208 209 208 202 195 205 210 204 197 210 208 166 174 191 147 154 170 182 189 152 190 189 178 182 187 185 174 180 180 194 194 192 189 187 190 193 191 190 190 191 180 155
269 268 267 269 269 270 271 272 272 269 266 262 254 242 239 235 238 232 235 224 220 224 226 227 228 228 226 225 223 223 224 222 218 215 214 213 208 207 208 205 205 223 196 164 173 180 165 171 175 173 223 2 117 129 184 175 183 185 180 178 175 185 177 181 161 176 191 190 190 190 191 191 188 172
284 284 285 283 275 274 272 271 271 269 266 261 258 248 241 236 231 232 233 224 223 224 225 224 225 224 222 222 220 222 222 221 218 216 215 216 217 214 215 212 209 215 199 174 175 180 158 175 175 178 186 146 193 146 149 182 191 157 179 177 174 173 167 165 159 171 177 186 185 193 192 191 191 191
287 287 284 281 281 280 278 274 271 268 266 266 260 255 249 245 235 232 234 227 221 222 221 221 223 221 220 220 220 219 222 220 218 217 214 216 219 219 220 226 227 221 165 155 182 184 177 174 176 175 182 188 148 169 174 153 183 167 163 172 166 170 174 172 173 175 176 183 172 199 195 198 195 194
281 282 282 283 283 284 284 282 277 271 265 259 260 258 253 247 240 234 234 229 223 219 218 219 221 222 219 220 220 220 219 219 215 216 218 217 217 222 223 226 240 240 160 168 179 187 181 172 179 191 181 171 172 177 185 217 121 170 163 165 142 164 154 155 161 156 173 161 164 189 153 176 189 178
272 274 277 279 281 281 281 284 289 281 268 262 257 255 253 249 242 237 230 228 221 219 218 218 221 222 219 217 220 220 216 214 209 208 213 213 213 213 218 218 203 182 169 178 182 186 189 185 183 182 181 188 187 188 176 179 166 162 167 160 164 186 175 171 166 174 174 167 177 182 185 178 175 175
279 280 283 285 285 286 287 287 284 287 282 262 255 253 252 246 242 236 233 226 223 221 218 218 219 222 220 218 218 216 205 199 205 197 190 153 137 142 149 143 108 12 227 187 183 187 190 189 183 179 180 186 189 177 179 148 170 167 168 167 134 131 150 166 161 171 170 178 180 182 186 173 178 170
276 274 273 272 274 276 281 284 286 285 286 276 250 243 243 244 242 241 235 231 226 223 220 219 218 221 220 216 207 206 197 204 204 198 188 179 173 150 156 163 147 128 12 358 187 194 190 184 177 174 176 180 167 176 168 163 157 167 174 168 160 166 173 162 172 172 176 172 170 172 175 176 179 187
264 264 267 272 272 274 274 275 278 287 290 277 250 232 229 231 235 239 241 238 231 225 221 218 215 215 211 207 205 202 203 204 200 189 184 183 173 169 154 155 177 149 116 72 61 60 89 111 166 181 179 171 173 159 124 157 167 163 164 169 153 81 122 146 162 166 169 160 165 174 181 182 188 193
258 260 268 265 272 274 281 288 287 287 284 283 271 253 241 232 226 228 231 235 231 224 216 215 209 211 203 208 200 201 200 202 195 182 183 183 171 172 178 186 175 161 160 157 131 93 88 86 55 59 67 56 142 156 152 147 175 169 165 167 150 133 134 155 150 157 157 161 170 168 177 191 190 195
286 281 276 277 278 278 279 276 280 286 289 289 281 266 254 250 246 238 237 237 236 227 221 213 210 207 202 203 199 195 200 199 192 183 180 180 171 172 183 187 182 174 167 152 148 142 129 109 101 77 58 61 48 49 108 160 155 166 168 131 155 150 148 144 154 157 166 163 162 160 168 184 194 198
275 274 269 271 271 271 269 272 275 275 279 282 280 273 263 258 251 244 237 232 228 226 219 214 210 205 201 201 194 195 195 193 182 182 185 173 174 182 182 184 170 171 164 161 157 155 141 141 130 110 74 80 79 331 26 32 143 152 143 153 119 140 147 155 155 163 165 168 164 165 164 170 202 206
283 272 271 266 265 269 268 271 276 280 284 286 284 274 253 247 250 249 240 229 224 225 224 220 212 206 202 198 193 192 191 181 175 174 177 177 182 183 183 178 168 170 166 164 161 157 154 156 155 155 159 150 159 183 236 218 184 161 159 168 172 153 152 149 159 157 160 163 171 156 174 185 193 202
279 268 265 262 259 258 262 264 266 268 268 271 277 277 263 250 246 247 242 236 229 222 222 222 216 206 200 194 187 186 180 174 175 176 178 178 178 176 173 169 165 166 165 168 160 158 159 163 169 170 165 167 175 197 192 129 187 208 151 162 157 165 157 153 150 153 158 157 166 166 168 185 204 201
271 270 263 261 257 252 253 255 259 261 264 265 267 267 260 249 249 248 240 230 218 212 219 219 211 202 198 186 180 177 176 177 172 170 174 171 173 180 181 172 163 168 165 161 162 168 169 167 174 180 177 182 187 189 161 164 144 209 195 165 157 163 151 142 158 164 167 159 153 176 170 188 224 231
274 272 271 263 258 251 250 248 249 255 262 265 268 267 260 248 242 244 238 234 232 223 219 219 212 198 189 182 179 175 169 167 171 176 175 179 180 177 174 168 163 167 161 165 166 173 170 179 183 187 190 190 195 190 168 163 189 192 183 175 127 143 162 165 161 152 143 154 149 164 138 221 267 273
284 280 274 268 260 251 246 247 248 247 252 257 259 260 253 245 234 232 229 224 222 219 216 212 200 185 183 177 175 174 176 176 177 177 179 179 181 178 177 173 169 165 167 171 171 178 184 187 181 181 182 119 57 87 86 83 53 80 150 178 167 157 158 146 157 149 144 150 149 141 185 214 206 265
296 292 285 275 262 247 244 242 241 244 247 255 259 255 243 234 228 228 231 218 209 204 202 195 183 181 181 177 176 173 177 184 183 180 178 177 175 178 174 166 164 170 171 179 178 181 188 186 159 125 100 111 123 101 95 103 123 145 155 168 177 165 163 155 149 136 137 155 143 163 188 203 222 252
297 296 295 288 268 248 241 246 247 251 256 259 258 249 236 231 231 215 207 209 201 200 194 187 184 184 183 180 179 179 181 179 177 175 172 168 168 168 168 168 169 170 173 178 178 179 148 127 138 132 128 133 137 141 160 160 150 153 149 120 67 159 163 161 161 158 156 153 139 133 153 223 210 254
309 305 303 298 280 254 242 243 247 248 251 254 252 240 223 219 222 219 214 207 202 196 195 192 187 184 183 180 178 177 173 170 168 165 163 167 167 167 170 173 171 169 170 161 145 144 143 146 141 135 142 139 146 140 152 153 149 143 141 139 141 84 104 171 185 189 189 189 189 182 171 163 132 256
311 309 305 304 294 265 246 242 244 246 245 246 241 225 211 202 209 211 207 201 194 193 189 181 174 170 164 160 159 160 166 165 162 161 165 168 169 169 167 162 157 154 146 137 136 138 138 140 145 147 147 153 147 132 140 130 120 145 137 130 102 118 130 58 39 33 7 321 265 246 258 263 261 260
313 311 308 308 310 315 301 283 270 261 251 234 221 211 213 205 210 208 200 192 185 173 159 156 151 150 148 149 153 157 154 149 152 156 157 157 158 155 150 148 146 144 144 145 139 139 141 138 138 135 129 130 118 123 126 126 129 120 122 129 133 132 117 102 108 171 246 293 286 275 279 279 281 282